Location: Norton
(51.3000°N, 0.8167°E)
Time: 11:27:56
(UTC+00:00)

Cosmos 2278 Rocket - Pass Details

Date: 03 March 2021
Orbit: 841 x 845 km, 71.0° (Epoch: 16 April)

Event Time Altitude Azimuth Distance (km) Brightness Sun altitude
Rises 20:22:05 0° 329° (NNW) 3,417 6.2 -25.5°
Reaches altitude 10° 20:24:32 10° 331° (NNW) 2,477 5.3 -25.8°
Maximum altitude 20:30:15 85° 60° (ENE) 855 2.1 -26.6°
Enters shadow 20:30:32 80° 120° (ESE) 863 2.0 -26.7°
